DW7603 Weather Reports


time (UTC)temp
F
wind
direction
speed
knots
gust
knots
rain 1hr
in
rain 24hr
in
rain mn
in
humidity
%
barometer
mb
20260505200058 58 42 1.7 8.7 0.00 0.00 0.00 48 1003.6
20260505194531 56 355 5.2 13.9 0.00 0.00 0.00 50 1003.8
20260505193009 57 32 7.8 13.9 0.00 0.00 0.00 48 1003.8
20260505191554 55 342 7.0 13.0 0.00 0.00 0.00 49 1003.9
20260505190042 54 306 8.7 14.8 0.00 0.00 0.00 51 1004.1
20260505184515 54 311 8.7 13.9 0.00 0.00 0.00 51 1004.1
20260505183053 56 263 7.0 13.0 0.00 0.00 0.00 46 1004.0
20260505181536 56 5 3.5 11.3 0.00 0.00 0.00 47 1003.9
20260505180015 56 337 5.2 12.2 0.00 0.00 0.00 45 1003.7
20260505174602 56 343 8.7 13.0 0.00 0.00 0.00 46 1003.4
20260505173039 55 360 4.3 10.4 0.00 0.00 0.00 50 1003.3
20260505171531 55 350 3.5 8.7 0.00 0.00 0.00 44 1003.2
20260505170005 55 60 2.6 10.4 0.00 0.00 0.00 45 1003.4
20260505164549 54 317 4.3 8.7 0.00 0.00 0.00 46 1003.3
20260505163023 53 298 6.1 13.9 0.00 0.00 0.00 47 1003.4
20260505161527 52 17 7.8 14.8 0.00 0.00 0.00 52 1003.5
20260505153015 51 41 12.2 19.1 0.00 0.00 0.00 54 1003.9
20260505151549 51 19 10.4 20.9 0.00 0.00 0.00 58 1004.1
20260505124533 54 319 1.7 4.3 0.00 0.00 0.00 38 1003.3
20260505123010 54 338 1.7 5.2 0.00 0.00 0.00 38 1003.5
20260505121552 54 307 2.6 5.2 0.00 0.00 0.00 37 1003.4
20260505120031 54 317 1.7 5.2 0.00 0.00 0.00 37 1003.3
20260505114512 54 303 4.3 7.8 0.00 0.00 0.00 36 1003.4
20260505113108 55 321 3.5 5.2 0.00 0.00 0.00 36 1003.2
20260505111533 54 338 1.7 3.5 0.00 0.00 0.00 36 1003.2
20260505101512 55 271 0.0 2.6 0.00 0.00 0.00 35 1003.3
20260505100055 55 257 0.9 2.6 0.00 0.00 0.00 34 1003.2
20260505094541 56 257 1.7 3.5 0.00 0.00 0.00 32 1003.2
20260505093017 57 327 0.0 1.7 0.00 0.00 0.00 31 1003.0
20260505091505 57 17 2.6 7.8 0.00 0.00 0.00 30 1003.0
20260505090047 58 339 3.5 9.6 0.00 0.00 0.00 30 1003.1
20260505084530 58 337 6.1 9.6 0.00 0.00 0.00 30 1003.3
20260505083006 58 304 6.1 12.2 0.00 0.00 0.00 31 1003.4
20260505081555 58 317 6.1 13.9 0.00 0.00 0.00 31 1004.0
20260505080044 58 17 6.1 11.3 0.00 0.00 0.00 31 1004.2
20260505074506 59 325 3.5 9.6 0.00 0.00 0.00 30 1004.2
20260505073046 59 315 4.3 8.7 0.00 0.00 0.00 30 1004.0
20260505071528 60 5 5.2 11.3 0.00 0.00 0.00 29 1004.1
20260505070005 60 329 3.5 7.8 0.00 0.00 0.00 27 1004.0
20260505064540 61 278 6.1 11.3 0.00 0.00 0.00 27 1003.7
20260505063020 61 307 7.8 16.5 0.00 0.00 0.00 26 1003.5
20260505061555 61 313 7.8 13.9 0.00 0.00 0.00 26 1003.5
20260505061504 61 296 7.8 13.9 0.00 0.00 0.00 26 1003.5
20260505060039 62 307 6.1 12.2 0.00 0.00 0.00 25 1003.6
20260505054514 62 261 4.3 8.7 0.00 0.00 0.00 24 1003.8
20260505053053 63 303 7.0 11.3 0.00 0.00 0.00 23 1003.7
20260505051532 63 269 7.0 13.0 0.00 0.00 0.00 23 1003.6
20260505041528 64 315 5.2 8.7 0.00 0.00 0.00 22 1003.2
20260505040004 65 315 7.0 12.2 0.00 0.00 0.00 23 1003.2
20260505034544 65 313 4.3 8.7 0.00 0.00 0.00 22 1003.2
20260505033033 65 324 4.3 8.7 0.00 0.00 0.00 22 1003.0
20260505031504 66 291 3.5 9.6 0.00 0.00 0.00 22 1002.8
20260505030045 66 290 7.0 13.9 0.00 0.00 0.00 21 1002.7
20260505024532 67 329 7.8 18.2 0.00 0.00 0.00 21 1002.6
20260505023058 67 355 8.7 17.4 0.00 0.00 0.00 20 1002.5
20260505023004 67 323 8.7 17.4 0.00 0.00 0.00 20 1002.4
20260505021542 68 333 8.7 18.2 0.00 0.00 0.00 19 1002.4
20260505020026 68 303 8.7 15.6 0.00 0.00 0.00 18 1002.1
20260505014607 69 302 7.0 13.0 0.00 0.00 0.00 19 1002.1
20260505014501 69 355 6.1 13.0 0.00 0.00 0.00 19 1002.1
20260505013042 69 318 7.8 13.9 0.00 0.00 0.00 18 1001.9
20260505011519 70 305 10.4 16.5 0.00 0.00 0.00 18 1001.7
20260505010059 70 310 8.7 18.2 0.00 0.00 0.00 17 1001.7
20260505010004 71 312 10.4 18.2 0.00 0.00 0.00 17 1001.8
20260505004540 71 318 12.2 17.4 0.00 0.00 0.00 17 1001.9
20260505003020 71 286 7.8 15.6 0.00 0.00 0.00 16 1001.9
20260505001600 72 295 12.2 20.9 0.00 0.00 0.00 15 1002.0
20260505001502 72 26 13.0 20.9 0.00 0.00 0.00 15 1001.9
20260505000046 72 285 11.3 18.2 0.00 0.00 0.00 14 1001.8
20260504234525 72 309 12.2 20.9 0.00 0.00 0.00 13 1001.8
20260504233004 72 340 12.2 20.0 0.00 0.00 0.00 13 1002.3
20260504231543 72 317 11.3 18.2 0.00 0.00 0.00 12 1002.2
20260504230026 72 300 12.2 20.9 0.00 0.00 0.00 11 1002.3
20260504224506 73 257 10.4 20.9 0.00 0.00 0.00 12 1002.5
20260504223044 73 310 10.4 18.2 0.00 0.00 0.00 11 1002.4
20260504221522 73 141 14.8 22.6 0.00 0.00 0.00 11 1002.5
20260504220004 73 323 13.9 20.9 0.00 0.00 0.00 12 1002.6
20260504214551 73 321 14.8 22.6 0.00 0.00 0.00 12 1002.8
20260504213027 74 261 6.1 20.0 0.00 0.00 0.00 12 1002.9
20260504211510 74 311 9.6 17.4 0.00 0.00 0.00 13 1003.4
20260504210054 74 315 7.0 17.4 0.00 0.00 0.00 13 1003.5
20260504204530 74 319 4.3 12.2 0.00 0.00 0.00 15 1003.8
20260504203134 73 355 7.0 13.0 0.00 0.00 0.00 15 1004.3
20260504201537 73 52 8.7 19.1 0.00 0.00 0.00 16 1004.9